Voltar ao catálogo

NOAA 16 DEB

AtivoPO
NORAD 41230·DEBRIS·🇺🇸 United States

Lançado Sep 21, 2000 de Vandenberg Space Force Base

Loading…

Próximas Passagens (próximas 24 horas)

TLE

AtualizadoSource: Space-Track

Época: Sep 14, 2026, 11:20 UTC

1 41230U 00055EK  26257.47273143  .00003807  00000-0  93133-3 0  9993
2 41230  98.9894 135.3624 0025309 195.6693 164.3720 14.52980563560907

Acompanhe NOAA 16 DEB em tempo real com AllMySat

Download on the App Store